Temperature
11 11 11 11 11 11 11 11 11 10 10 10 10 10 10 10 10 10 10 10 10 10 9 9 9 9 9 9 9 9 9 9 9 9 9 9 9 9 9 9 9 9 9
10 11 11 11 11 11 10 10 10 10 10 10 10 9 9 9 9 9 9 9 9 9 9 9 9 9 9 9 9 9 9 9 9 9 8 8 8 8 8 8 8 8 8
10 10 10 10 10 10 10 10 10 9 9 9 9 9 9 9 9 9 9 9 9 9 9 9 8 8 8 8 8 8 8 8 8 8 8 8 8 8 8 8 8 8 7
9 9 9 9 9 9 9 9 9 9 9 9 9 9 9 9 9 9 9 9 9 9 8 8 8 8 8 8 8 8 8 8 8 8 8 8 8 7 7 7 7 7 7
9 9 9 9 9 9 9 9 9 9 9 8 8 8 8 8 8 8 8 8 8 8 8 8 8 8 8 8 8 8 8 7 7 7 7 7 7 7 7 7 6 6 6
8 8 8 8 8 8 8 8 8 8 8 8 8 8 8 8 8 8 8 8 8 7 7 7 7 7 7 7 7 7 7 7 7 7 7 6 6 6 6 6 6 6 6
8 8 8 8 8 8 8 8 8 8 8 7 7 7 7 7 7 7 7 7 7 7 7 7 7 7 7 7 7 7 6 6 6 6 6 6 6 6 6 6 6 6 6
7 7 7 7 7 7 7 7 7 7 7 7 6 6 6 6 7 7 7 7 7 6 6 6 6 6 6 6 6 6 6 6 6 5 5 5 5 5 5 5 5 5 5
7 7 7 7 7 7 7 7 7 7 7 7 6 6 6 6 6 6 6 6 6 6 6 6 6 6 6 6 6 6 5 5 5 5 5 5 5 5 5 5 5 5 5
6 6 6 6 6 6 6 6 6 6 6 6 6 6 6 6 6 5 6 6 6 6 6 6 6 5 5 5 5 5 5 5 5 5 5 4 4 4 4 4 4 4 4
6 6 6 6 6 6 6 6 6 6 6 6 6 6 6 5 5 5 5 5 5 5 5 5 5 5 5 5 5 5 5 4 4 4 4 4 4 4 4 4 4 4 4
6 5 5 5 5 5 5 5 5 5 5 5 5 5 5 5 5 5 5 5 5 5 5 5 5 4 4 4 4 4 4 4 4 4 4 4 4 4 4 4 4 4 4
5 5 5 5 5 5 5 5 5 5 5 5 5 5 5 5 5 4 4 4 4 4 4 4 4 4 4 4 4 4 4 4 3 4 4 3 3 3 3 3 3 3 3
5 5 5 5 4 4 4 4 4 4 4 4 4 4 4 4 4 4 4 4 3 3 4 4 4 4 3 3 3 3 3 3 3 3 3 3 3 3 3 3 3 3 3
4 4 4 4 4 4 4 4 4 4 4 4 4 4 4 4 3 3 3 3 3 2 2 3 3 3 3 3 3 3 3 3 3 3 3 3 3 3 3 3 2 2 2
4 4 3 3 3 3 3 3 3 3 3 3 3 3 3 3 3 3 3 2 2 2 2 2 2 2 2 2 2 2 2 2 2 2 2 2 2 2 2 2 2 2 2
3 3 3 3 3 3 3 3 3 3 3 3 3 3 3 3 3 3 2 2 2 2 2 2 2 2 2 2 2 2 2 2 2 2 2 2 2 2 2 1 1 1 1
3 3 3 2 2 2 2 2 2 2 2 2 2 2 2 2 2 2 2 2 2 1 1 1 2 1 1 1 1 1 1 1 1 1 1 1 1 1 1 1 1 1 1
2 2 2 2 2 2 2 2 2 2 2 2 2 2 2 2 2 2 2 1 1 1 1 1 1 1 1 1 1 1 1 1 1 1 1 1 0 0 0 0 0 0 -0
2 2 2 2 2 1 1 1 1 1 1 1 1 1 1 1 1 1 1 1 1 1 0 0 0 0 0 0 0 0 0 0 0 0 0 0 -0 -0 -0 -0 -0 -1 -1
2 2 1 1 1 1 1 1 1 1 1 1 1 1 1 1 1 1 1 1 1 0 0 0 -0 -0 -0 -0 -0 -0 -0 -0 -0 -0 -0 -0 -1 -1 -1 -1 -1 -1 -1
1 1 1 1 0 0 0 0 0 0 0 1 1 0 0 0 0 0 0 0 0 0 -0 -0 -0 -0 -0 -1 -1 -1 -1 -1 -1 -1 -1 -1 -1 -1 -1 -1 -1 -1 -2
1 1 0 0 -0 0 0 0 0 0 0 0 -0 -0 -0 -0 -0 -0 -0 -0 -0 -0 -0 -0 -0 -0 -1 -1 -1 -1 -1 -2 -2 -2 -2 -2 -2 -2 -2 -2 -2 -2 -2
0 0 0 -0 -0 -0 -0 -0 -0 -0 -1 -0 -0 -1 -1 -1 -0 -0 -0 -0 -0 -0 -1 -1 -1 -1 -1 -1 -1 -2 -2 -2 -2 -2 -2 -2 -2 -2 -2 -2 -2 -2 -3
-0 -0 -0 -1 -1 -1 -1 -1 -1 -1 -1 -1 -1 -1 -1 -1 -1 -1 -1 -1 -1 -1 -1 -1 -1 -1 -1 -1 -2 -2 -2 -2 -3 -3 -3 -3 -3 -3 -3 -2 -3 -3 -3
-0 -1 -1 -1 -1 -1 -1 -1 -1 -1 -1 -1 -1 -1 -1 -1 -1 -1 -1 -1 -1 -1 -1 -1 -2 -2 -2 -2 -2 -2 -2 -3 -3 -4 -3 -4 -4 -4 -4 -4 -3 -3 -3
Wind_Speed
3 3 2 3 3 3 3 3 3 3 4 4 3 4 4 4 4 4 4 5 4 4 3 3 3 2 2 2 3 3 3 3 3 4 4 3 3 4 4 5 6 6 6
3 3 2 2 2 2 3 3 3 3 3 3 3 3 3 3 3 4 4 4 5 4 4 4 3 2 2 2 3 3 2 3 3 3 3 3 3 4 5 5 6 7 7
3 3 2 2 1 2 3 3 3 3 2 2 2 2 2 2 2 3 3 4 4 4 4 4 3 2 2 1 2 2 2 3 3 3 3 3 3 4 5 6 7 7 8
3 3 2 2 1 2 3 2 2 1 1 1 0 1 1 1 1 2 3 3 3 3 4 4 4 3 3 2 1 2 2 2 3 3 3 4 4 5 6 6 7 8 8
3 3 2 2 2 2 2 2 1 1 1 1 0 0 0 0 1 1 2 2 2 2 2 3 4 4 3 3 3 3 2 2 3 3 4 5 5 6 6 7 8 8 8
3 3 2 2 3 2 1 1 1 1 0 1 0 1 1 1 0 1 1 1 1 1 1 1 2 3 3 4 4 4 4 4 4 4 5 6 6 6 7 7 8 9 9
3 3 2 2 3 2 1 1 1 1 1 0 1 1 2 2 1 1 1 1 0 1 1 0 0 1 2 3 4 5 5 5 5 5 5 6 7 7 7 7 8 9 9
3 3 3 3 2 2 1 1 1 1 0 0 1 1 0 2 2 1 1 1 1 0 1 1 1 1 1 2 3 5 6 6 7 7 6 7 7 8 8 8 8 9 10
3 3 4 4 3 3 3 2 2 2 1 1 0 2 2 3 2 2 1 1 1 1 1 1 1 2 2 2 3 4 6 8 8 8 8 8 8 9 9 9 9 10 10
4 3 4 4 4 3 3 3 2 1 2 2 1 1 1 2 1 1 2 2 2 2 2 2 2 2 2 2 3 4 6 7 8 9 9 9 9 9 9 9 9 10 10
3 4 4 3 3 3 3 3 2 2 2 2 2 1 0 1 1 2 2 3 2 2 2 2 2 2 3 2 3 5 6 7 8 9 10 9 10 10 10 10 10 10 11
2 3 4 3 3 3 4 3 3 3 2 2 2 2 1 1 1 1 2 3 3 3 3 2 2 2 3 3 5 6 7 7 8 9 9 10 10 11 10 10 10 10 11
3 4 4 3 3 4 4 4 3 3 3 3 3 2 2 2 2 2 2 2 2 2 2 2 2 2 2 4 6 7 7 8 8 8 9 9 10 11 11 11 11 10 11
4 4 4 4 4 4 4 4 3 3 3 3 4 3 3 3 2 2 2 2 2 2 2 3 2 3 3 5 6 7 7 8 8 8 9 9 10 10 10 10 10 10 11
3 4 4 4 3 3 4 4 3 3 3 4 4 3 3 3 2 2 2 2 3 3 4 3 2 3 5 5 6 6 7 8 9 9 9 9 10 10 9 10 10 10 10
3 4 4 4 4 4 4 4 4 3 4 4 3 4 4 3 3 2 3 3 3 4 4 3 3 3 5 5 6 6 7 8 8 9 9 9 9 9 9 9 10 10 10
4 5 5 5 4 4 4 4 4 4 4 4 4 4 5 3 3 3 2 2 3 3 5 4 3 3 3 3 5 6 6 6 7 9 9 9 9 9 9 9 9 9 10
4 4 4 5 5 5 5 5 5 5 5 5 5 4 5 3 3 3 3 3 3 3 3 5 3 2 3 3 3 4 5 6 7 8 9 9 8 8 8 8 8 9 9
4 4 4 5 5 5 5 5 5 5 6 6 5 5 5 4 4 4 4 4 3 3 3 3 4 2 2 2 2 3 4 4 5 7 7 7 8 9 9 9 8 9 9
5 5 5 5 5 4 5 5 5 5 5 5 5 5 5 6 6 5 5 5 4 4 3 3 4 3 2 2 1 2 3 2 3 5 6 7 8 9 9 9 9 9 8
4 4 4 4 4 4 5 5 5 5 5 5 5 5 5 6 7 6 5 4 4 4 3 3 4 3 3 2 2 2 3 3 3 3 2 4 5 5 6 8 8 8 8
3 4 4 5 5 4 5 7 5 5 5 5 5 5 5 5 7 8 8 6 5 5 4 4 4 5 5 4 3 2 2 3 4 2 2 4 3 4 5 5 7 8 8
4 4 4 5 5 5 6 7 6 5 5 5 5 5 4 5 5 5 6 7 7 7 7 5 5 6 5 4 3 3 3 3 5 3 2 4 2 3 4 7 8 8 8
4 4 4 4 4 5 6 6 6 4 4 5 5 5 5 5 5 5 5 4 5 5 6 6 5 5 5 4 4 4 3 3 3 2 2 2 2 3 4 6 7 7 7
3 3 4 4 5 5 6 6 5 3 4 4 5 5 5 6 7 5 4 4 4 4 5 6 6 5 6 5 3 1 1 1 3 2 1 1 2 3 4 3 4 6 7
3 3 3 4 4 5 6 6 5 3 4 4 4 4 6 6 6 5 4 4 5 4 2 2 2 3 3 3 3 3 3 2 2 2 1 1 1 2 3 2 2 4 5
Wind_Direction
133 119 109 104 102 97 97 97 93 91 90 87 83 82 73 69 63 51 37 35 48 62 61 64 72 83 81 80 75 74 70 60 47 40 38 35 22 6 354 351 353 347 342
136 138 130 115 111 118 112 109 106 100 95 94 80 78 80 75 70 61 48 43 36 38 43 44 40 45 49 45 51 50 52 56 36 27 24 18 9 348 343 344 341 338 342
145 137 137 137 135 127 117 104 98 95 90 84 67 58 74 79 77 80 77 66 51 33 28 24 21 20 355 8 39 28 26 29 15 6 5 360 360 348 336 331 331 334 334
145 134 136 150 141 118 112 117 114 113 110 104 63 34 69 86 80 80 93 83 72 51 28 18 9 5 360 358 10 9 355 353 355 354 349 340 338 332 332 330 325 325 327
153 137 144 144 138 117 121 130 115 140 142 139 312 0 356 22 118 106 100 98 95 74 46 21 10 357 355 347 350 345 332 325 327 330 330 325 321 322 320 324 325 323 322
165 149 140 137 128 118 102 123 120 78 135 176 94 353 331 302 184 164 165 118 117 124 100 45 22 351 343 338 339 335 332 329 320 316 317 315 311 312 315 315 323 325 321
171 160 153 150 144 144 176 163 132 93 27 32 78 1 338 326 317 264 210 160 130 163 138 159 25 349 329 331 328 325 324 323 320 318 316 313 312 308 308 314 319 321 323
179 179 165 169 167 165 164 173 154 147 18 37 141 129 330 326 316 294 229 202 223 1 329 271 229 251 288 308 317 320 318 319 317 316 315 312 312 308 306 310 316 317 318
184 186 181 174 172 176 188 191 183 171 190 279 210 167 171 219 289 294 275 241 237 239 286 302 277 273 266 288 300 307 318 317 314 315 314 313 312 309 304 308 311 315 317
191 192 188 180 179 178 188 197 191 199 178 206 267 292 221 173 182 273 289 281 278 264 263 293 295 283 280 283 291 299 308 309 309 312 310 308 309 311 305 306 308 312 314
202 195 188 183 183 179 186 189 195 194 192 197 196 204 302 345 175 192 261 289 303 283 271 268 264 271 277 285 290 294 300 301 306 310 310 308 307 307 310 307 307 307 310
222 204 191 187 193 187 190 193 197 192 201 203 199 192 194 201 218 191 230 254 272 283 287 277 260 269 275 283 289 294 292 295 299 303 307 308 306 304 306 309 309 308 307
236 229 206 196 201 195 188 185 197 205 205 205 211 219 220 227 218 214 222 247 272 290 294 286 269 274 281 294 292 292 288 290 295 299 303 305 307 305 304 305 306 307 310
229 221 204 199 203 201 193 185 199 215 211 216 221 219 225 233 229 218 212 218 271 286 273 271 286 262 288 296 290 292 294 297 296 297 299 300 302 303 304 304 305 307 309
226 207 199 204 204 203 201 191 211 220 216 222 226 222 228 234 232 227 212 207 202 250 261 254 265 273 297 297 295 299 299 300 298 294 296 298 299 299 300 301 302 304 308
223 215 213 211 211 211 211 203 217 221 220 231 227 225 232 233 224 223 216 220 218 220 247 254 259 280 298 303 300 300 295 300 297 294 296 296 297 298 300 299 300 302 306
214 218 215 215 215 216 212 212 219 217 225 237 232 227 235 228 222 224 226 226 229 219 248 274 274 283 283 285 308 305 301 298 294 296 297 297 299 303 304 300 299 302 305
219 220 215 213 213 217 216 213 219 221 224 234 232 227 234 230 225 227 223 235 239 227 232 262 279 285 278 276 289 300 309 308 299 298 300 298 302 306 307 306 305 303 303
223 222 213 214 217 220 221 218 217 221 227 233 229 225 230 223 229 231 227 234 245 243 230 240 264 270 274 279 299 303 306 306 306 305 306 303 304 306 308 307 309 309 307
225 219 217 219 220 221 223 221 219 223 228 236 235 230 231 227 229 229 231 231 237 237 234 235 250 261 263 274 276 285 304 299 304 309 306 304 304 307 308 308 308 306 306
236 222 217 223 223 219 221 218 220 224 228 239 240 236 236 238 241 237 237 231 229 230 230 238 250 264 260 265 265 266 284 302 296 285 290 300 303 302 302 303 303 300 303
242 221 217 220 224 229 227 224 223 224 228 235 241 243 245 243 248 249 251 247 238 235 228 229 244 252 258 260 258 255 268 300 297 271 290 302 300 295 296 293 294 300 305
229 219 218 219 227 232 230 229 226 220 227 238 242 246 251 256 254 243 252 251 248 247 237 227 232 241 246 244 238 242 249 269 279 270 288 292 296 293 298 301 303 302 305
227 221 221 224 230 236 233 236 232 224 231 241 243 242 240 247 251 244 234 239 246 248 244 236 231 239 245 241 227 233 234 265 274 272 265 276 290 290 303 301 300 305 307
235 225 221 223 230 238 234 237 238 222 232 245 244 242 241 242 252 248 228 234 251 260 259 251 254 262 269 264 254 199 206 263 289 288 274 258 280 304 300 295 294 309 313
236 224 226 230 233 237 241 243 240 221 229 243 249 247 246 248 253 249 228 224 239 245 234 243 254 272 273 259 256 216 203 230 276 278 255 274 267 324 309 293 302 308 310
Height
1532 1532 1532 1532 1532 1532 1532 1532 1531 1531 1531 1531 1531 1531 1531 1531 1531 1531 1531 1530 1530 1530 1530 1530 1529 1529 1529 1529 1528 1528 1528 1528 1527 1527 1527 1526 1526 1526 1525 1524 1523 1523 1522
1530 1530 1530 1530 1530 1530 1530 1530 1530 1530 1529 1529 1530 1530 1530 1529 1529 1529 1529 1529 1528 1528 1528 1528 1528 1528 1527 1527 1527 1527 1527 1526 1526 1525 1525 1525 1524 1524 1523 1522 1521 1520 1519
1528 1528 1528 1528 1528 1528 1528 1528 1528 1528 1528 1528 1528 1528 1528 1528 1528 1528 1528 1527 1527 1526 1527 1527 1526 1526 1526 1526 1526 1525 1525 1524 1524 1524 1523 1523 1522 1521 1521 1520 1519 1518 1517
1526 1526 1526 1526 1526 1526 1526 1526 1525 1526 1526 1526 1526 1526 1526 1527 1526 1526 1526 1526 1525 1525 1525 1525 1524 1524 1524 1524 1524 1523 1523 1523 1522 1522 1521 1521 1520 1519 1518 1517 1516 1515 1514
1524 1524 1524 1524 1524 1523 1523 1523 1523 1524 1524 1524 1524 1524 1524 1524 1524 1524 1524 1524 1524 1523 1523 1523 1523 1523 1522 1522 1521 1521 1521 1520 1520 1519 1519 1518 1517 1516 1516 1515 1514 1513 1512
1521 1521 1521 1521 1521 1521 1521 1521 1521 1521 1522 1522 1522 1522 1522 1522 1522 1522 1522 1522 1522 1521 1521 1521 1521 1520 1520 1520 1519 1519 1518 1518 1517 1517 1516 1515 1515 1514 1513 1512 1511 1510 1509
1518 1518 1518 1518 1518 1518 1518 1518 1519 1519 1519 1519 1520 1519 1520 1520 1520 1520 1519 1519 1519 1519 1519 1519 1518 1518 1518 1518 1517 1516 1516 1515 1515 1514 1513 1512 1512 1511 1510 1509 1508 1507 1506
1515 1515 1515 1515 1515 1515 1515 1516 1516 1516 1516 1517 1518 1517 1517 1518 1517 1517 1517 1517 1517 1517 1517 1516 1516 1516 1515 1515 1514 1514 1513 1513 1512 1511 1511 1510 1509 1508 1507 1506 1505 1504 1502
1511 1511 1511 1512 1512 1512 1512 1512 1513 1513 1513 1514 1515 1516 1515 1514 1514 1514 1514 1515 1515 1514 1514 1514 1513 1513 1512 1512 1511 1511 1510 1510 1509 1508 1508 1507 1506 1505 1504 1502 1501 1500 1499
1507 1507 1508 1508 1508 1508 1509 1509 1510 1510 1511 1511 1512 1512 1513 1512 1513 1512 1512 1512 1512 1511 1511 1511 1510 1510 1510 1509 1508 1508 1507 1507 1506 1505 1504 1503 1502 1501 1500 1499 1497 1496 1495
1504 1503 1504 1504 1504 1504 1505 1506 1506 1507 1507 1508 1508 1508 1509 1509 1509 1509 1508 1509 1509 1509 1508 1508 1507 1507 1506 1506 1505 1504 1504 1503 1502 1501 1501 1500 1499 1497 1496 1494 1493 1492 1491
1499 1499 1500 1500 1500 1501 1501 1502 1503 1503 1504 1504 1505 1505 1506 1506 1506 1506 1505 1505 1505 1505 1505 1505 1504 1504 1503 1503 1502 1501 1501 1500 1499 1498 1497 1496 1494 1493 1492 1490 1489 1488 1487
1495 1495 1495 1495 1496 1496 1497 1498 1499 1499 1500 1501 1501 1501 1502 1503 1503 1503 1503 1501 1501 1501 1501 1501 1501 1501 1500 1499 1499 1498 1497 1496 1495 1494 1493 1492 1490 1489 1488 1486 1485 1483 1482
1491 1491 1491 1492 1492 1492 1493 1494 1495 1495 1496 1497 1497 1498 1498 1499 1499 1499 1500 1499 1498 1497 1497 1497 1497 1497 1497 1496 1495 1494 1493 1492 1491 1490 1488 1487 1486 1485 1483 1482 1480 1479 1478
1487 1487 1487 1488 1488 1488 1489 1489 1490 1491 1492 1493 1493 1494 1494 1495 1495 1495 1496 1496 1496 1494 1493 1493 1493 1493 1493 1492 1491 1490 1489 1488 1487 1486 1484 1483 1481 1480 1479 1477 1476 1474 1473
1483 1483 1483 1483 1484 1484 1485 1485 1486 1487 1488 1489 1489 1490 1490 1491 1491 1491 1491 1492 1492 1492 1490 1489 1489 1489 1489 1488 1487 1486 1485 1484 1483 1481 1480 1478 1477 1475 1474 1473 1471 1469 1468
1478 1478 1478 1479 1479 1480 1481 1481 1482 1483 1484 1484 1485 1485 1486 1487 1487 1487 1487 1488 1488 1488 1486 1484 1485 1485 1485 1484 1483 1482 1481 1479 1478 1477 1475 1474 1472 1471 1469 1468 1466 1465 1463
1474 1474 1474 1475 1475 1475 1476 1477 1478 1478 1479 1480 1481 1481 1482 1483 1483 1483 1483 1483 1483 1483 1482 1480 1480 1480 1480 1480 1479 1478 1476 1475 1474 1473 1471 1470 1468 1466 1465 1463 1461 1460 1459
1469 1470 1470 1470 1470 1471 1472 1473 1473 1474 1475 1476 1476 1477 1478 1478 1478 1479 1479 1479 1479 1479 1478 1477 1476 1476 1476 1476 1474 1474 1473 1471 1470 1469 1467 1466 1464 1462 1460 1459 1457 1456 1454
1464 1465 1465 1465 1466 1467 1468 1468 1469 1470 1471 1471 1472 1472 1473 1473 1474 1474 1474 1474 1475 1474 1474 1473 1472 1472 1471 1471 1471 1469 1468 1467 1466 1465 1463 1462 1460 1459 1457 1455 1453 1452 1450
1460 1460 1460 1461 1462 1462 1463 1464 1465 1466 1466 1467 1467 1468 1468 1469 1469 1470 1470 1470 1470 1470 1469 1469 1468 1468 1467 1466 1466 1465 1464 1462 1461 1460 1459 1458 1456 1455 1453 1451 1450 1448 1446
1455 1456 1456 1457 1457 1458 1459 1460 1461 1461 1462 1462 1462 1463 1463 1464 1464 1465 1465 1465 1466 1466 1465 1465 1464 1464 1462 1462 1461 1461 1460 1458 1457 1457 1455 1453 1453 1451 1449 1447 1446 1444 1443
1451 1451 1452 1452 1453 1454 1455 1455 1456 1457 1457 1457 1458 1458 1459 1459 1460 1460 1460 1460 1461 1461 1461 1461 1460 1459 1458 1458 1457 1456 1456 1455 1453 1452 1451 1448 1448 1447 1446 1444 1442 1441 1439
1447 1447 1447 1448 1449 1449 1450 1451 1452 1452 1453 1453 1453 1454 1454 1454 1455 1455 1455 1455 1456 1456 1456 1456 1456 1455 1454 1454 1453 1453 1451 1451 1450 1449 1448 1445 1444 1443 1442 1441 1439 1438 1436
1443 1443 1443 1444 1444 1445 1446 1447 1448 1448 1448 1448 1449 1449 1449 1450 1450 1451 1451 1450 1450 1451 1451 1451 1451 1451 1450 1450 1449 1448 1447 1447 1445 1445 1444 1442 1440 1439 1437 1437 1436 1435 1433
1439 1439 1440 1440 1441 1441 1442 1443 1444 1444 1444 1444 1444 1444 1445 1445 1446 1446 1446 1445 1445 1446 1446 1446 1446 1446 1445 1445 1445 1444 1443 1443 1442 1441 1440 1440 1438 1436 1434 1433 1432 1432 1430